Bellingham, WA
on Tuesday, December 4, 2012

Tuesday
Previous Day Next Day
Daily Summary
 ActualAverageRecord
Temperature
Mean Temperature °F 39°F  
Max Temperature 53°F 45°F 66°F (2006)
Min Temperature 44°F 33°F 15°F (1956)
Degree Days
Heating Degree Days 16 26  
Month to date heating degree days 102  
Cooling Degree Days 0 0  
Month to date cooling degree days 0  
Year to date cooling degree days 42  
Moisture
Dew Point 43°F   
Average Humidity 80    
Maximum Humidity 93    
Minimum Humidity 64    
Precipitation
Precipitation 0.12 in 0.16 in 1.33 in (1989)
Month to date precipitation 0.67  
Year to date precipitation 32.28  
Wind
Wind Speed 11 mph   
Max Wind Speed 31 mph   
Max Gust Speed 45 mph   
Visibility 10 miles   
Events Rain   

Key: T is trace of precipitation, MM is missing value
Source: NWS Daily Summary
Time(PST)TemperatureDew PointHumidity Pressure Visibility Wind DirectionWind SpeedGust SpeedPrecipitationEvents Conditions
12:53 AM 53.1°F 41.0°F 64% 29.58 in 10.0 miles SE 15.0 mph 23.0 mph 0.00 in Rain Light Rain
1:53 AM 50.0°F 43.0°F 77% 29.55 in 10.0 miles ESE 9.2 mph - 0.00 in Rain Light Rain
2:53 AM 48.0°F 44.1°F 86% 29.52 in 5.0 miles SE 9.2 mph - 0.05 in Rain Light Rain
3:28 AM 44.6°F 42.8°F 93% 29.47 in 9.0 miles NE 4.6 mph - 0.00 in   Overcast
3:53 AM 44.1°F 42.1°F 93% 29.48 in 10.0 miles NNE 4.6 mph - 0.00 in   Overcast
4:53 AM 52.0°F 42.1°F 69% 29.47 in 10.0 miles SSE 23.0 mph 36.8 mph N/A   Overcast
5:53 AM 53.1°F 43.0°F 69% 29.47 in 10.0 miles SSE 31.1 mph 44.9 mph N/A   Partly Cloudy
6:53 AM 53.1°F 45.0°F 74% 29.52 in 10.0 miles SSE 25.3 mph 34.5 mph N/A   Scattered Clouds
7:33 AM 51.8°F 46.4°F 82% 29.54 in 10.0 miles South 18.4 mph 35.7 mph N/A   Overcast
7:53 AM 51.1°F 46.0°F 83% 29.58 in 10.0 miles South 17.3 mph 25.3 mph N/A   Overcast
8:06 AM 51.8°F 46.4°F 82% 29.57 in 10.0 miles South 17.3 mph 24.2 mph N/A   Overcast
8:50 AM 51.8°F 46.4°F 82% 29.61 in 10.0 miles South 8.1 mph 18.4 mph N/A   Mostly Cloudy
8:53 AM 51.1°F 45.0°F 80% 29.64 in 10.0 miles South 8.1 mph - N/A   Overcast
9:53 AM 52.0°F 44.1°F 74% 29.68 in 10.0 miles SSW 3.5 mph - N/A   Overcast
10:53 AM 51.1°F 41.0°F 68% 29.71 in 10.0 miles South 4.6 mph - N/A   Mostly Cloudy
11:53 AM 51.1°F 42.1°F 71% 29.72 in 10.0 miles SSE 8.1 mph - N/A   Overcast
12:53 PM 51.1°F 41.0°F 68% 29.70 in 10.0 miles SSE 5.8 mph - 0.00 in   Overcast
1:53 PM 50.0°F 41.0°F 71% 29.72 in 10.0 miles SW 4.6 mph - 0.00 in Rain Light Rain
2:53 PM 48.0°F 44.1°F 86% 29.70 in 10.0 miles Calm Calm - 0.00 in Rain Light Rain
3:53 PM 46.9°F 42.1°F 83% 29.71 in 7.0 miles Variable 4.6 mph - 0.01 in Rain Light Rain
4:01 PM 46.4°F 42.8°F 87% 29.68 in 10.0 miles Variable 4.6 mph - 0.00 in   Overcast
4:49 PM 46.4°F 42.8°F 87% 29.67 in 10.0 miles West 3.5 mph - 0.00 in   Overcast
4:53 PM 46.0°F 43.0°F 89% 29.70 in 10.0 miles Calm Calm - 0.00 in   Overcast
5:27 PM 46.4°F 42.8°F 87% 29.67 in 3.0 miles South 3.5 mph - 0.05 in Rain Rain
5:41 PM 46.4°F 42.8°F 87% 29.67 in 10.0 miles SSE 3.5 mph - 0.05 in Rain Light Rain
5:53 PM 46.0°F 43.0°F 89% 29.69 in 10.0 miles SE 4.6 mph - 0.05 in   Overcast
6:53 PM 48.0°F 42.1°F 80% 29.68 in 10.0 miles SSE 12.7 mph 19.6 mph N/A   Overcast
7:53 PM 48.0°F 42.1°F 80% 29.66 in 10.0 miles SSE 12.7 mph 18.4 mph 0.00 in   Mostly Cloudy
8:53 PM 48.0°F 42.1°F 80% 29.67 in 10.0 miles South 12.7 mph 18.4 mph N/A   Overcast
9:53 PM 46.0°F 41.0°F 83% 29.73 in 10.0 miles Variable 6.9 mph - 0.01 in Rain Light Rain
10:28 PM 46.4°F 39.2°F 76% 29.72 in 10.0 miles SSW 10.4 mph 17.3 mph 0.00 in   Overcast
10:53 PM 45.0°F 39.0°F 80% 29.77 in 10.0 miles SSW 8.1 mph - 0.00 in   Mostly Cloudy
11:53 PM 45.0°F 36.0°F 71% 29.80 in 10.0 miles SSW 6.9 mph - 0.00 in   Overcast
Moon Phase
Dec. 04 Dec. 06 Dec. 13 Dec. 20 Dec. 28
Sunrise:07:46 AM (PST) Moon Rise:10:28 PM (PST)12/4
Sunset:04:14 PM (PST) Moon Set:11:25 AM (PST)12/4

Copyright © 2014 The Weather Underground, Inc.